Weather History for Statesboro, GA

Change the Weather History Date:

Friday, May 10, 2013

  Actual Average (KSAV) Record (KSAV)
Temperature  
Mean Temperature 73 °F 72 °F  
Max Temperature 87 °F 83 °F 94 °F (1889)
Min Temperature 59 °F 60 °F 46 °F (1967)
Degree Days  
Heating Degree Days 0 0  
Month to date heating degree days 6  
Since 1 July heating degree days 1809  
Cooling Degree Days 8 7  
Month to date cooling degree days 61  
Year to date cooling degree days 197  
Growing Degree Days 23 (Base 50)    
Moisture  
Dew Point 61 °F    
Average Humidity 67    
Maximum Humidity 100    
Minimum Humidity 37    
Precipitation  
Precipitation 0.00 in 0.08 in 1.29 in (1989)
Month to date precipitation 0.84  
Year to date precipitation 14.12  
Sea Level Pressure  
Sea Level Pressure 30.06 in    
Wind  
Wind Speed 3 mph (SSW)    
Max Wind Speed 14 mph    
Max Gust Speed 21 mph    
Visibility 10 miles    
Events      
T = Trace of Precipitation, MM = Missing Value Source: NWS Daily Summary

Daily Weather History Graph

Daily Weather History Graph

Search for Another Location

Airport:

Trip Planner

Search our weather history database for the weather conditions in past years. The results will help you decide how hot, cold, wet, or windy it might be!

Date:

Astronomy

May. 10, 2013 Rise Set
Actual Time 6:32 AM EDT 8:14 PM EDT
Civil Twilight 6:05 AM EDT 8:41 PM EDT
Nautical Twilight 5:33 AM EDT 9:14 PM EDT
Astronomical Twilight 4:59 AM EDT 9:48 PM EDT
Moon 6:55 AM EDT (5/10) 9:01 PM EDT (5/10)
Length of Visible Light 14h 36m
Length of Day
13h 42m
New Moon, 0% of the Moon is Illuminated
May 10
New Moon
May 18
First Quarter
May 25
Full
May 31
Last Quarter
Jun 8
New

Hourly Weather History & Observations

Time (EDT) Temp. Heat Index Dew Point Humidity Pressure Visibility Wind Dir Wind Speed Gust Speed Precip Events Conditions
12:35 AM 63.9 °F - 63.9 °F 100% 30.11 in 10.0 mi Calm Calm - N/A   Clear
1:15 AM 61.9 °F - 61.9 °F 100% 30.11 in 10.0 mi Calm Calm - N/A   Clear
1:55 AM 62.4 °F - 62.4 °F 100% 30.09 in 10.0 mi Calm Calm - N/A   Clear
2:15 AM 62.6 °F - 62.6 °F 100% 30.09 in 10.0 mi Calm Calm - N/A   Clear
2:35 AM 62.6 °F - 62.6 °F 100% 30.09 in 10.0 mi Calm Calm - N/A   Clear
2:55 AM 61.2 °F - 61.2 °F 100% 30.09 in 10.0 mi Calm Calm - N/A   Clear
3:15 AM 60.8 °F - 60.8 °F 100% 30.09 in 7.0 mi Calm Calm - N/A   Clear
3:35 AM 61.7 °F - 61.7 °F 100% 30.09 in 10.0 mi Calm Calm - N/A   Clear
3:55 AM 61.2 °F - 61.2 °F 100% 30.09 in 10.0 mi Calm Calm - N/A   Clear
4:15 AM 62.2 °F - 62.2 °F 100% 30.09 in 10.0 mi Calm Calm - N/A   Clear
4:35 AM 61.7 °F - 61.7 °F 100% 30.08 in 10.0 mi Calm Calm - N/A   Clear
4:55 AM 61.5 °F - 61.5 °F 100% 30.08 in 10.0 mi Calm Calm - N/A   Clear
5:15 AM 60.8 °F - 60.8 °F 100% 30.08 in 7.0 mi Calm Calm - N/A   Clear
5:35 AM 60.8 °F - 60.8 °F 100% 30.07 in 10.0 mi Calm Calm - N/A   Clear
5:55 AM 60.3 °F - 60.3 °F 100% 30.07 in 7.0 mi Calm Calm - N/A   Clear
6:15 AM 59.9 °F - 59.9 °F 100% 30.07 in 7.0 mi Calm Calm - N/A   Clear
6:35 AM 59.9 °F - 59.9 °F 100% 30.07 in 5.0 mi Calm Calm - N/A   Clear
6:55 AM 59.9 °F - 59.9 °F 100% 30.08 in 5.0 mi Calm Calm - N/A   Clear
7:15 AM 61.0 °F - 61.0 °F 100% 30.08 in 7.0 mi Calm Calm - N/A   Clear
7:35 AM 61.9 °F - 61.9 °F 100% 30.08 in 7.0 mi Calm Calm - N/A   Clear
8:15 AM 66.6 °F - 65.7 °F 97% 30.08 in 10.0 mi Calm Calm - N/A   Clear
8:35 AM 69.1 °F - 67.1 °F 93% 30.09 in 10.0 mi Calm Calm - N/A   Clear
9:15 AM 74.5 °F - 63.5 °F 68% 30.10 in 10.0 mi Calm Calm - N/A   Clear
9:35 AM 75.9 °F - 63.5 °F 65% 30.10 in 10.0 mi SW 3.5 mph - N/A   Clear
9:55 AM 77.2 °F - 63.3 °F 62% 30.09 in 10.0 mi WSW 3.5 mph - N/A   Clear
10:15 AM 78.8 °F - 63.3 °F 59% 30.08 in 10.0 mi WSW 3.5 mph - N/A   Clear
10:35 AM 80.8 °F 82.0 °F 62.8 °F 54% 30.09 in 10.0 mi SW 4.6 mph - N/A   Clear
10:55 AM 81.5 °F 82.4 °F 61.9 °F 51% 30.09 in 10.0 mi WSW 5.8 mph - N/A   Clear
11:15 AM 82.4 °F 82.9 °F 61.2 °F 48% 30.10 in 10.0 mi SW 5.8 mph - N/A   Clear
11:35 AM 83.7 °F 84.3 °F 62.1 °F 48% 30.10 in 10.0 mi WSW 10.4 mph - N/A   Clear
11:55 AM 84.2 °F 83.8 °F 58.8 °F 42% 30.10 in 10.0 mi SSW 10.4 mph - N/A   Clear
12:15 PM 84.9 °F 84.6 °F 59.5 °F 42% 30.10 in 10.0 mi SSW 11.5 mph 20.7 mph N/A   Clear
12:35 PM 84.4 °F 83.8 °F 58.5 °F 41% 30.10 in 10.0 mi WSW 8.1 mph - N/A   Scattered Clouds
1:15 PM 85.1 °F 84.3 °F 57.4 °F 39% 30.09 in 10.0 mi South 8.1 mph - N/A   Scattered Clouds
1:35 PM 85.8 °F 85.2 °F 59.0 °F 40% 30.09 in 10.0 mi SSW 8.1 mph - N/A   Scattered Clouds
1:55 PM 85.3 °F 84.4 °F 57.7 °F 39% 30.08 in 10.0 mi SW 9.2 mph - N/A   Scattered Clouds
2:15 PM 86.2 °F 85.2 °F 57.6 °F 38% 30.08 in 10.0 mi SW 11.5 mph - N/A   Scattered Clouds
2:35 PM 87.1 °F 86.3 °F 58.8 °F 38% 30.08 in 10.0 mi WSW 11.5 mph - N/A   Scattered Clouds
2:55 PM 85.5 °F 85.2 °F 59.9 °F 42% 30.06 in 10.0 mi West 8.1 mph - N/A   Scattered Clouds
3:15 PM 84.4 °F 83.8 °F 58.1 °F 41% 30.05 in 10.0 mi SW 8.1 mph 17.3 mph N/A   Clear
3:35 PM 86.7 °F 86.1 °F 58.8 °F 39% 30.04 in 10.0 mi SW 6.9 mph - N/A   Clear
3:55 PM 87.6 °F 86.9 °F 59.2 °F 38% 30.03 in 10.0 mi SW 13.8 mph - N/A   Scattered Clouds
4:15 PM 86.2 °F 85.2 °F 57.6 °F 38% 30.02 in 10.0 mi SW 9.2 mph - N/A   Clear
4:35 PM 86.4 °F 85.2 °F 57.0 °F 37% 30.02 in 10.0 mi SSW 8.1 mph 16.1 mph N/A   Clear
4:55 PM 86.2 °F 85.2 °F 57.7 °F 38% 30.01 in 10.0 mi SW 9.2 mph - N/A   Clear
5:15 PM 85.6 °F 84.7 °F 57.0 °F 38% 30.01 in 10.0 mi SSW 6.9 mph - N/A   Scattered Clouds
5:35 PM 85.6 °F 84.8 °F 58.1 °F 39% 30.00 in 10.0 mi WSW 4.6 mph - N/A   Scattered Clouds
6:15 PM 83.8 °F 83.4 °F 58.3 °F 42% 30.00 in 10.0 mi SSW 5.8 mph - N/A   Clear
6:35 PM 83.7 °F 83.4 °F 59.2 °F 43% 29.99 in 10.0 mi SSW 3.5 mph - N/A   Clear
6:55 PM 83.3 °F 83.2 °F 59.2 °F 44% 29.99 in 10.0 mi SSW 4.6 mph - N/A   Clear
7:15 PM 82.4 °F 82.6 °F 59.5 °F 46% 29.98 in 10.0 mi South 3.5 mph - N/A   Scattered Clouds
7:35 PM 81.1 °F 81.8 °F 60.3 °F 49% 29.99 in 10.0 mi South 3.5 mph - N/A   Clear
7:55 PM 79.7 °F - 61.5 °F 54% 29.99 in 10.0 mi Calm Calm - N/A   Clear
8:15 PM 77.9 °F - 63.1 °F 60% 30.00 in 10.0 mi Calm Calm - N/A   Clear
8:35 PM 77.9 °F - 62.4 °F 59% 30.00 in 10.0 mi SSE 4.6 mph - N/A   Clear
8:55 PM 77.5 °F - 61.3 °F 57% 29.99 in 10.0 mi SSE 6.9 mph - N/A   Clear
9:15 PM 77.0 °F - 60.3 °F 56% 30.00 in 10.0 mi SSE 9.2 mph - N/A   Clear
9:35 PM 76.1 °F - 59.9 °F 57% 30.01 in 10.0 mi South 5.8 mph - N/A   Clear
9:55 PM 75.4 °F - 60.1 °F 59% 30.02 in 7.0 mi South 5.8 mph - N/A   Clear
10:15 PM 73.9 °F - 60.1 °F 62% 30.02 in 10.0 mi South 6.9 mph - N/A   Clear
10:35 PM 73.8 °F - 60.1 °F 62% 30.03 in 10.0 mi South 8.1 mph - N/A   Clear
10:55 PM 73.4 °F - 60.6 °F 64% 30.03 in 10.0 mi South 6.9 mph - N/A   Clear
11:15 PM 72.7 °F - 60.8 °F 66% 30.03 in 10.0 mi South 6.9 mph - N/A   Clear
11:35 PM 72.1 °F - 61.0 °F 68% 30.03 in 10.0 mi South 5.8 mph - N/A   Clear
11:55 PM 71.8 °F - 61.2 °F 69% 30.03 in 10.0 mi South 5.8 mph - N/A   Clear